DLA4JT LIMJ-EDDM

Flight info

Callsign DLA4JT
Flight time N/A
Altitude 34000
Route ITCAP DCT MONEB DCT OSKOR DCT NESTI DCT TAGIP DCT GUNGO DCT IVKAL T102 NINUR T101 BETOS
Aircraft E195/M-SDE3GILORVW/S

Departure

Time 2026-04-29 07:35
Airport Genoa Cristoforo Colombo Airport (LIMJ)

Arrival

Time N/A
Airport Munich Airport (EDDM)
Time Latitude Longitude Altitude Speed Heading
2026-04-29 06:54 44.41488 8.84930 16 ft 0 kts 105°
2026-04-29 07:23 44.41488 8.84931 16 ft 0 kts 105°
2026-04-29 07:24 44.41489 8.84922 16 ft 2 kts 105°
2026-04-29 07:24 44.41493 8.84902 16 ft 2 kts 105°
2026-04-29 07:24 44.41498 8.84882 16 ft 2 kts 126°
2026-04-29 07:24 44.41509 8.84868 16 ft 2 kts 154°
2026-04-29 07:25 44.41523 8.84863 16 ft 2 kts 181°
2026-04-29 07:25 44.41533 8.84865 16 ft 0 kts 195°
2026-04-29 07:27 44.41530 8.84863 16 ft 2 kts 216°
2026-04-29 07:27 44.41525 8.84810 16 ft 8 kts 265°
2026-04-29 07:28 44.41490 8.84727 16 ft 11 kts 232°
2026-04-29 07:28 44.41441 8.84645 16 ft 10 kts 211°
2026-04-29 07:28 44.41398 8.84713 16 ft 12 kts 106°
2026-04-29 07:28 44.41378 8.84816 16 ft 11 kts 105°
2026-04-29 07:29 44.41358 8.84920 16 ft 12 kts 105°
2026-04-29 07:29 44.41340 8.85025 16 ft 10 kts 103°
2026-04-29 07:29 44.41320 8.85129 16 ft 10 kts 105°
2026-04-29 07:29 44.41298 8.85233 16 ft 11 kts 120°
2026-04-29 07:30 44.41234 8.85284 16 ft 11 kts 185°
2026-04-29 07:30 44.41161 8.85257 16 ft 11 kts 195°
2026-04-29 07:30 44.41087 8.85228 16 ft 11 kts 203°
2026-04-29 07:31 44.40984 8.85264 16 ft 10 kts 106°
2026-04-29 07:31 44.40964 8.85368 16 ft 10 kts 104°
2026-04-29 07:31 44.40946 8.85472 16 ft 10 kts 103°
2026-04-29 07:31 44.40928 8.85576 16 ft 10 kts 104°
2026-04-29 07:32 44.40911 8.85681 16 ft 10 kts 103°
2026-04-29 07:32 44.40894 8.85786 16 ft 10 kts 102°
2026-04-29 07:32 44.40877 8.85891 16 ft 10 kts 104°
2026-04-29 07:32 44.40866 8.85994 16 ft 10 kts 69°
2026-04-29 07:33 44.40863 8.86055 16 ft 3 kts 158°
2026-04-29 07:33 44.40838 8.86031 16 ft 5 kts 257°
2026-04-29 07:33 44.40841 8.86000 16 ft 0 kts 284°
2026-04-29 07:34 44.40850 8.85950 16 ft 20 kts 285°
2026-04-29 07:34 44.40926 8.85557 16 ft 61 kts 286°
2026-04-29 07:34 44.41070 8.84826 16 ft 93 kts 286°
2026-04-29 07:35 44.41264 8.83835 16 ft 116 kts 285°
2026-04-29 07:35 44.41510 8.82575 35 ft 160 kts 285°
2026-04-29 07:35 44.41720 8.80996 520 ft 174 kts 266°
2026-04-29 07:35 44.41280 8.79452 1174 ft 175 kts 227°
2026-04-29 07:36 44.40253 8.78633 1842 ft 177 kts 188°
2026-04-29 07:36 44.39043 8.78656 2563 ft 174 kts 181°
2026-04-29 07:36 44.37835 8.78725 3169 ft 177 kts 177°
2026-04-29 07:36 44.36606 8.78820 3792 ft 179 kts 177°
2026-04-29 07:37 44.35365 8.78917 4374 ft 183 kts 177°
2026-04-29 07:37 44.34054 8.79020 4766 ft 197 kts 177°
2026-04-29 07:37 44.32663 8.79129 5262 ft 203 kts 177°
2026-04-29 07:37 44.31259 8.79238 5777 ft 207 kts 178°
2026-04-29 07:38 44.29837 8.79324 6312 ft 209 kts 178°
2026-04-29 07:38 44.28305 8.79422 6376 ft 235 kts 177°
2026-04-29 07:38 44.26528 8.79536 6434 ft 276 kts 177°
2026-04-29 07:38 44.24453 8.79670 6448 ft 317 kts 177°
2026-04-29 07:39 44.22250 8.79813 6409 ft 312 kts 177°
2026-04-29 07:39 44.20142 8.80189 6177 ft 301 kts 160°
2026-04-29 07:39 44.18428 8.81663 6386 ft 298 kts 135°
2026-04-29 07:39 44.17228 8.84109 6416 ft 307 kts 112°
2026-04-29 07:40 44.16857 8.86971 6469 ft 308 kts 86°
2026-04-29 07:40 44.17464 8.89914 7232 ft 325 kts 60°
2026-04-29 07:40 44.18894 8.92325 8279 ft 333 kts 39°
2026-04-29 07:40 44.20861 8.94004 9311 ft 340 kts 27°
2026-04-29 07:41 44.22997 8.95492 10327 ft 348 kts 26°
2026-04-29 07:41 44.25147 8.97024 11329 ft 352 kts 27°
2026-04-29 07:41 44.27293 8.98581 12277 ft 350 kts 27°
2026-04-29 07:41 44.29450 9.00155 13260 ft 354 kts 27°
2026-04-29 07:42 44.31633 9.01755 14261 ft 357 kts 27°
2026-04-29 07:42 44.33827 9.03368 15201 ft 360 kts 28°
2026-04-29 07:42 44.36059 9.05015 16059 ft 365 kts 28°
2026-04-29 07:42 44.38296 9.06673 16890 ft 370 kts 28°
2026-04-29 07:43 44.40577 9.08370 17700 ft 374 kts 28°
2026-04-29 07:43 44.42864 9.10076 18478 ft 378 kts 28°
2026-04-29 07:43 44.45178 9.11808 19233 ft 382 kts 28°
2026-04-29 07:43 44.47535 9.13579 19972 ft 386 kts 28°
2026-04-29 07:44 44.49904 9.15363 20687 ft 390 kts 28°
2026-04-29 07:44 44.52292 9.17168 21377 ft 394 kts 28°
2026-04-29 07:44 44.54698 9.18991 22046 ft 398 kts 28°
2026-04-29 07:44 44.57149 9.20854 22702 ft 402 kts 28°
2026-04-29 07:45 44.59595 9.22720 23333 ft 406 kts 28°
2026-04-29 07:45 44.62099 9.24658 23956 ft 409 kts 30°
2026-04-29 07:45 44.64554 9.26666 24554 ft 413 kts 30°
2026-04-29 07:45 44.67031 9.28719 25139 ft 416 kts 30°
2026-04-29 07:46 44.69515 9.30778 25706 ft 420 kts 30°
2026-04-29 07:46 44.72021 9.32858 26258 ft 423 kts 30°
2026-04-29 07:46 44.74558 9.34965 26800 ft 427 kts 30°
2026-04-29 07:46 44.77104 9.37083 27326 ft 430 kts 30°
2026-04-29 07:47 44.79682 9.39230 27841 ft 433 kts 30°
2026-04-29 07:47 44.82287 9.41402 28365 ft 436 kts 30°
2026-04-29 07:47 44.84877 9.43565 28889 ft 438 kts 30°
2026-04-29 07:47 44.87543 9.45793 29375 ft 441 kts 30°
2026-04-29 07:48 44.90161 9.47983 29835 ft 445 kts 30°
2026-04-29 07:48 44.92821 9.50213 30291 ft 448 kts 30°
2026-04-29 07:48 44.95511 9.52469 30741 ft 451 kts 30°
2026-04-29 07:48 44.98216 9.54742 31180 ft 453 kts 30°
2026-04-29 07:49 45.00906 9.57004 31665 ft 454 kts 30°
2026-04-29 07:49 45.03615 9.59285 32210 ft 454 kts 30°
2026-04-29 07:49 45.06307 9.61556 32767 ft 452 kts 30°
2026-04-29 07:49 45.09003 9.63833 33312 ft 450 kts 30°
2026-04-29 07:50 45.11672 9.66091 33833 ft 449 kts 31°
2026-04-29 07:50 45.14305 9.68320 34027 ft 436 kts 31°
2026-04-29 07:50 45.19600 9.72808 34077 ft 445 kts 31°
2026-04-29 07:51 45.24889 9.77300 34102 ft 445 kts 31°
2026-04-29 07:51 45.30172 9.81799 34085 ft 445 kts 31°
2026-04-29 07:52 45.35505 9.86352 34075 ft 445 kts 31°
2026-04-29 07:52 45.40793 9.90876 34077 ft 445 kts 31°
2026-04-29 07:53 45.46107 9.95433 34102 ft 445 kts 31°
2026-04-29 07:53 45.51392 9.99977 34103 ft 445 kts 31°
2026-04-29 07:54 45.56670 10.04525 34076 ft 445 kts 31°
2026-04-29 07:54 45.61949 10.09089 34090 ft 444 kts 31°
2026-04-29 07:55 45.64464 10.11650 34098 ft 444 kts 43°
2026-04-29 07:55 45.66485 10.14944 34121 ft 445 kts 53°
2026-04-29 07:55 45.70100 10.22118 34102 ft 444 kts 54°
2026-04-29 07:56 45.73729 10.29349 34103 ft 445 kts 54°
2026-04-29 07:56 45.77324 10.36527 34102 ft 445 kts 54°
2026-04-29 07:57 45.80901 10.43721 34109 ft 444 kts 54°
2026-04-29 07:57 45.84491 10.50978 34154 ft 445 kts 54°
2026-04-29 07:58 45.88036 10.58156 34157 ft 444 kts 54°
2026-04-29 07:58 45.91615 10.65432 34156 ft 444 kts 55°
2026-04-29 07:59 45.93588 10.68826 34153 ft 444 kts 42°
2026-04-29 07:59 45.96099 10.71408 34178 ft 445 kts 30°
2026-04-29 07:59 46.01548 10.75536 34157 ft 444 kts 27°
2026-04-29 08:00 46.07020 10.79662 34157 ft 444 kts 28°
2026-04-29 08:00 46.12467 10.83787 34156 ft 444 kts 28°
2026-04-29 08:01 46.17917 10.87949 34156 ft 444 kts 28°
2026-04-29 08:01 46.23385 10.92157 34155 ft 444 kts 28°
2026-04-29 08:02 46.28800 10.96343 34156 ft 444 kts 28°
2026-04-29 08:02 46.34237 11.00563 34155 ft 444 kts 28°
2026-04-29 08:03 46.39628 11.04739 34154 ft 444 kts 25°
2026-04-29 08:03 46.42558 11.06126 34143 ft 444 kts
2026-04-29 08:03 46.45634 11.06362 34152 ft 445 kts 358°
2026-04-29 08:04 46.51771 11.05855 34129 ft 444 kts 356°
2026-04-29 08:04 46.57893 11.05357 33684 ft 439 kts 356°
2026-04-29 08:05 46.60956 11.05111 32855 ft 450 kts 356°
2026-04-29 08:05 46.64066 11.04866 32433 ft 449 kts 357°
2026-04-29 08:05 46.67141 11.04633 31955 ft 442 kts 357°
2026-04-29 08:05 46.70216 11.04403 31490 ft 442 kts 357°
2026-04-29 08:06 46.73282 11.04158 31036 ft 446 kts 357°
2026-04-29 08:06 46.76375 11.03917 30568 ft 447 kts 357°
2026-04-29 08:06 46.79477 11.03631 30235 ft 445 kts 354°
2026-04-29 08:06 46.82545 11.03121 30166 ft 444 kts 353°
2026-04-29 08:07 46.88629 11.01965 30188 ft 447 kts 353°
2026-04-29 08:07 46.94782 11.01076 30182 ft 447 kts
2026-04-29 08:08 47.00977 11.01864 30183 ft 447 kts
2026-04-29 08:08 47.07153 11.02797 30183 ft 447 kts
2026-04-29 08:09 47.13316 11.03717 30183 ft 447 kts
2026-04-29 08:09 47.19532 11.04654 30183 ft 447 kts
2026-04-29 08:10 47.25669 11.05586 30182 ft 447 kts
2026-04-29 08:10 47.31841 11.06532 30183 ft 447 kts
2026-04-29 08:11 47.38026 11.07481 30072 ft 450 kts
2026-04-29 08:11 47.41125 11.07954 29714 ft 449 kts
2026-04-29 08:11 47.44253 11.08434 29366 ft 448 kts
2026-04-29 08:12 47.47348 11.08911 29028 ft 450 kts
2026-04-29 08:12 47.50451 11.09390 28692 ft 452 kts
2026-04-29 08:12 47.53545 11.09872 28348 ft 449 kts
2026-04-29 08:12 47.56567 11.10877 27989 ft 443 kts 21°
2026-04-29 08:13 47.59346 11.12853 27672 ft 441 kts 28°
2026-04-29 08:13 47.61979 11.15081 27344 ft 441 kts 30°
2026-04-29 08:13 47.64625 11.17355 27006 ft 439 kts 30°
2026-04-29 08:13 47.67264 11.19616 26666 ft 435 kts 30°
2026-04-29 08:14 47.69860 11.21838 26333 ft 433 kts 30°
2026-04-29 08:14 47.72465 11.24053 26000 ft 432 kts 27°
2026-04-29 08:14 47.75204 11.25901 25669 ft 430 kts 21°
2026-04-29 08:14 47.77996 11.27489 25340 ft 427 kts 20°
2026-04-29 08:15 47.80743 11.29008 25017 ft 425 kts 20°
2026-04-29 08:15 47.83525 11.30548 24514 ft 429 kts 20°
2026-04-29 08:15 47.86299 11.32096 23653 ft 431 kts 20°
2026-04-29 08:15 47.89151 11.33302 22790 ft 428 kts
2026-04-29 08:16 47.92084 11.33729 21934 ft 417 kts
2026-04-29 08:16 47.94944 11.33968 21131 ft 417 kts
2026-04-29 08:16 47.97790 11.34203 20300 ft 409 kts
2026-04-29 08:16 48.00593 11.34445 19504 ft 409 kts
2026-04-29 08:17 48.03414 11.34693 18692 ft 405 kts
2026-04-29 08:17 48.06164 11.34827 17867 ft 391 kts 357°
2026-04-29 08:17 48.08862 11.34453 17106 ft 389 kts 353°
2026-04-29 08:17 48.11507 11.33960 16323 ft 381 kts 352°
2026-04-29 08:18 48.14131 11.33469 15588 ft 383 kts 353°
2026-04-29 08:18 48.16734 11.32985 14824 ft 376 kts 353°
2026-04-29 08:18 48.19242 11.32518 14043 ft 353 kts 353°
2026-04-29 08:18 48.21633 11.32308 13228 ft 336 kts
2026-04-29 08:19 48.23795 11.33250 12454 ft 320 kts 28°
2026-04-29 08:19 48.25466 11.35263 11699 ft 308 kts 49°
2026-04-29 08:19 48.26832 11.37675 10923 ft 299 kts 49°
2026-04-29 08:19 48.28181 11.39959 10153 ft 291 kts 47°
2026-04-29 08:20 48.29492 11.42182 9599 ft 280 kts 49°
2026-04-29 08:20 48.30581 11.44537 9070 ft 274 kts 59°
2026-04-29 08:20 48.31345 11.47094 8540 ft 264 kts 77°
2026-04-29 08:20 48.31646 11.49745 8082 ft 251 kts 81°
2026-04-29 08:21 48.31918 11.52260 7666 ft 238 kts 80°
2026-04-29 08:21 48.32187 11.54657 7191 ft 229 kts 80°
2026-04-29 08:21 48.32439 11.56961 6742 ft 222 kts 80°
2026-04-29 08:21 48.32675 11.59169 6384 ft 209 kts 81°
2026-04-29 08:22 48.32901 11.61324 5966 ft 208 kts 81°
2026-04-29 08:22 48.33101 11.63412 5554 ft 202 kts 82°